Location: Marse
(42.1502°N, 110.9866°W)
Time: 03:48:06
(UTC+00:00)

MOZHAYETS 4 - Visible Passes

Search period start: 29 June 2022 00:00
Search period end: 09 July 2022 00:00
Orbit: 660 x 679 km, 98.2° (Epoch: 28 June)

Date Brightness Start Highest point End Pass type
(mag) Time Alt. Az. Time Alt. Az. Time Alt. Az.
29 Jun 7.7 09:43:18 19° SSE 09:46:34 86° E 09:51:12 10° NNW visible
30 Jun 10.0 08:39:02 10° ESE 08:42:22 20° ENE 08:45:44 10° NNE visible
30 Jun 8.1 10:16:14 20° SSW 10:19:08 43° W 10:23:33 10° NNW visible
01 Jul 8.9 09:10:58 14° SE 09:14:38 40° ENE 09:18:57 10° N visible
01 Jul 9.1 10:49:09 13° SW 10:51:51 21° W 10:55:19 10° NW visible
02 Jul 10.8 08:10:34 10° ENE 08:10:45 10° ENE 08:10:57 10° ENE visible
02 Jul 7.7 09:43:54 20° SSE 09:47:03 86° E 09:51:41 10° NNW visible
03 Jul 10.0 08:39:30 10° ESE 08:42:52 20° ENE 08:46:13 10° NNE visible
03 Jul 8.1 10:16:50 20° SSW 10:19:38 43° W 10:24:02 10° NNW visible
04 Jul 8.9 09:11:34 14° SE 09:15:08 40° ENE 09:19:26 10° N visible
04 Jul 9.1 10:49:46 13° SW 10:52:20 20° W 10:55:47 10° NW visible
05 Jul 10.7 08:10:54 10° ENE 08:11:13 10° ENE 08:11:33 10° NE visible
05 Jul 7.7 09:44:30 21° SSE 09:47:33 87° ENE 09:52:10 10° NNW visible
06 Jul 10.0 08:39:58 10° ESE 08:43:20 20° ENE 08:46:41 10° NNE visible
06 Jul 8.1 10:17:26 21° SSW 10:20:06 43° W 10:24:29 10° NNW visible
07 Jul 8.9 09:12:10 15° SE 09:15:36 41° ENE 09:19:54 10° N visible
07 Jul 9.1 10:50:22 14° SW 10:52:49 20° W 10:56:14 10° NW visible
08 Jul 10.7 08:11:17 10° ENE 08:11:41 10° ENE 08:12:05 10° NE visible
08 Jul 7.7 09:45:06 23° SSE 09:48:01 88° ENE 09:52:37 10° NNW visible
